NC2C Weather Reports


time (UTC)temp
F
wind
direction
speed
knots
gust
knots
rain 1hr
in
rain 24hr
in
rain mn
in
humidity
%
barometer
mb
20260506211820 48 327 1.7 2.6 0.03 0.00 0.42 94 1005.7
20260506211327 48 338 0.9 3.5 0.03 0.00 0.42 93 1005.7
20260506210817 47 355 2.6 4.3 0.03 0.00 0.42 93 1005.6
20260506210327 47 335 2.6 6.1 0.04 0.00 0.42 93 1005.6
20260506205815 47 19 2.6 9.6 0.03 0.00 0.41 93 1005.2
20260506205324 47 341 6.1 11.3 0.03 0.00 0.41 93 1005.2
20260506204814 48 342 7.0 11.3 0.03 0.00 0.41 93 1005.3
20260506204317 48 339 9.6 11.3 0.02 0.00 0.40 93 1005.4
20260506203826 48 55 3.5 10.4 0.02 0.00 0.40 93 1005.3
20260506203336 48 346 5.2 10.4 0.02 0.00 0.40 93 1005.2
20260506202818 49 5 5.2 7.8 0.03 0.00 0.40 93 1005.0
20260506202327 49 10 5.2 7.8 0.03 0.00 0.40 93 1005.1
20260506201814 49 350 5.2 8.7 0.02 0.00 0.39 93 1005.0
20260506201322 49 5 6.1 8.7 0.02 0.00 0.39 93 1004.8
20260506200831 49 340 1.7 5.2 0.02 0.00 0.39 93 1004.8
20260506200316 49 5 3.5 7.0 0.02 0.00 0.38 93 1004.6
20260506195823 49 10 4.3 7.8 0.02 0.00 0.38 93 1004.7
20260506195330 49 14 2.6 6.1 0.02 0.00 0.38 93 1004.7
20260506194820 49 15 3.5 7.8 0.02 0.00 0.38 93 1004.6
20260506194329 49 24 3.5 8.7 0.03 0.00 0.38 93 1004.5
20260506193818 49 349 5.2 8.7 0.04 0.00 0.38 93 1004.6
20260506193327 50 30 5.2 7.8 0.04 0.00 0.38 93 1004.4
20260506192817 50 48 3.5 8.7 0.03 0.00 0.37 93 1004.4
20260506192341 50 33 3.5 8.7 0.03 0.00 0.37 93 1004.4
20260506191830 50 37 4.3 10.4 0.03 0.00 0.37 93 1004.4
20260506191320 50 69 6.1 8.7 0.03 0.00 0.37 93 1004.3
20260506190826 50 67 5.2 10.4 0.03 0.00 0.37 93 1004.2
20260506190315 50 21 7.0 10.4 0.02 0.00 0.36 92 1004.1
20260506185823 50 22 5.2 11.3 0.02 0.00 0.36 92 1003.9
20260506185332 50 64 7.0 11.3 0.02 0.00 0.36 92 1003.8
20260506184820 51 44 6.1 12.2 0.02 0.00 0.36 91 1003.8
20260506184344 51 349 7.0 13.9 0.02 0.00 0.36 90 1003.7
20260506183832 52 49 6.1 13.9 0.00 0.00 0.34 88 1003.6
20260506183320 54 83 6.1 9.6 0.01 0.00 0.34 87 1003.4
20260506182827 58 22 5.2 9.6 0.01 0.00 0.34 88 1003.5
20260506182317 59 248 2.6 13.0 0.01 0.00 0.34 93 1003.2
20260506181825 59 202 4.3 13.0 0.01 0.00 0.34 93 1003.0
20260506181314 59 263 1.7 7.0 0.02 0.00 0.34 93 1003.1
20260506180839 59 193 2.6 7.8 0.02 0.00 0.34 93 1003.1
20260506180326 59 227 5.2 7.8 0.03 0.00 0.34 93 1003.0
20260506175814 59 178 5.2 8.7 0.03 0.00 0.34 93 1003.0
20260506175321 59 205 5.2 8.7 0.03 0.00 0.34 93 1003.0
20260506174830 59 257 3.5 8.7 0.03 0.00 0.34 93 1003.1
20260506174338 59 178 4.3 9.6 0.04 0.00 0.34 93 1003.1
20260506173827 59 196 7.0 10.4 0.04 0.00 0.34 93 1003.2
20260506173332 59 217 8.7 10.4 0.03 0.00 0.33 93 1003.3
20260506172819 59 205 6.1 11.3 0.04 0.00 0.33 94 1003.2
20260506172325 59 211 4.3 11.3 0.05 0.00 0.33 93 1003.3
20260506171815 59 200 5.2 8.7 0.05 0.00 0.33 94 1003.3
20260506171322 58 228 5.2 10.4 0.05 0.00 0.32 93 1003.4
20260506170831 58 201 6.1 10.4 0.06 0.00 0.32 93 1003.4
20260506170321 58 205 6.1 10.4 0.08 0.00 0.32 93 1003.4
20260506165830 58 221 4.3 7.8 0.08 0.00 0.31 93 1003.4
20260506165313 58 178 3.5 7.8 0.08 0.00 0.31 93 1003.3
20260506164822 58 200 4.3 8.7 0.09 0.00 0.31 93 1003.4
20260506164351 58 215 4.3 8.7 0.09 0.00 0.30 93 1003.5
20260506163818 58 235 3.5 7.0 0.00 0.00 0.30 93 1003.5
20260506163326 58 222 3.5 9.6 0.00 0.00 0.30 93 1003.5
20260506162815 58 196 6.1 9.6 0.00 0.00 0.29 93 1003.6
20260506162323 58 211 4.3 7.8 0.00 0.00 0.28 94 1003.6
20260506161827 58 265 4.3 9.6 0.00 0.00 0.28 94 1003.6
20260506161317 58 193 4.3 9.6 0.00 0.00 0.27 94 1003.7
20260506160847 58 210 5.2 9.6 0.00 0.00 0.26 94 1003.7
20260506160314 58 205 4.3 9.6 0.00 0.00 0.24 94 1003.9
20260506155824 58 229 2.6 5.2 0.00 0.00 0.24 94 1003.9
20260506155314 58 198 3.5 7.8 0.00 0.00 0.23 94 1003.9
20260506154822 58 217 3.5 7.8 0.00 0.00 0.22 94 1003.8
20260506153827 58 192 3.5 5.2 0.02 0.22 0.21 94 1004.7
20260506153346 58 226 2.6 4.3 0.01 0.21 0.20 94 1004.7
20260506152813 57 226 1.7 3.5 0.02 0.21 0.20 94 1004.7
20260506152321 57 257 2.6 4.3 0.02 0.21 0.20 94 1004.7
20260506151848 57 236 1.7 4.3 0.03 0.21 0.20 94 1004.5
20260506151316 57 212 2.6 4.3 0.04 0.21 0.20 94 1004.4
20260506150825 57 196 2.6 4.3 0.04 0.21 0.20 94 1004.5
20260506150315 57 232 1.7 8.7 0.05 0.21 0.20 94 1004.5
20260506145825 56 220 3.5 8.7 0.05 0.21 0.20 93 1004.6
20260506145331 56 225 4.3 10.4 0.05 0.20 0.19 93 1004.7
20260506144820 56 180 4.3 10.4 0.06 0.20 0.19 93 1004.7
20260506144320 56 208 3.5 8.7 0.07 0.20 0.19 93 1004.7
20260506143822 56 171 4.3 9.6 0.08 0.20 0.19 93 1004.7
20260506143329 56 198 5.2 9.6 0.09 0.20 0.19 93 1004.8
20260506142818 56 180 5.2 8.7 0.09 0.19 0.18 93 1004.9
20260506142325 56 215 4.3 8.7 0.10 0.19 0.18 93 1005.0
20260506141823 56 157 2.6 9.6 0.09 0.18 0.17 93 1005.1
20260506141352 56 195 6.1 10.4 0.08 0.17 0.16 93 1005.4
20260506140822 56 202 5.2 10.4 0.08 0.17 0.16 93 1005.4
20260506140331 56 195 5.2 10.4 0.07 0.16 0.15 93 1005.5
20260506135819 56 208 4.3 9.6 0.07 0.16 0.15 93 1005.6
20260506135326 56 190 5.2 9.6 0.06 0.15 0.14 93 1005.7
20260506134814 56 184 7.0 9.6 0.05 0.14 0.13 93 1005.9
20260506134323 56 212 6.1 11.3 0.04 0.13 0.12 93 1005.9
20260506133845 56 197 6.1 11.3 0.03 0.12 0.11 93 1005.9
20260506133331 56 196 6.1 9.6 0.03 0.11 0.10 93 1005.8
20260506132820 56 201 6.1 9.6 0.02 0.10 0.09 94 1005.8
20260506132327 55 215 7.0 9.6 0.02 0.10 0.09 94 1005.7
20260506131817 55 207 4.3 9.6 0.01 0.09 0.08 94 1005.6
20260506131325 55 198 5.2 8.7 0.01 0.09 0.08 95 1005.4
20260506130842 55 195 5.2 8.7 0.01 0.10 0.08 95 1005.4
20260506130330 54 205 2.6 4.3 0.01 0.10 0.08 95 1005.4
20260506125819 53 267 1.7 1.7 0.01 0.10 0.08 94 1005.4
20260506125328 53 355 0.0 0.9 0.02 0.10 0.08 94 1005.4
20260506124817 52 355 0.0 0.9 0.02 0.10 0.08 94 1005.4
20260506124323 52 355 0.0 0.9 0.02 0.10 0.08 94 1005.5
20260506123831 52 355 0.0 0.9 0.02 0.10 0.08 94 1005.5
20260506123321 52 355 0.0 0.9 0.02 0.09 0.07 94 1005.6
20260506122825 51 355 0.0 0.9 0.02 0.09 0.07 94 1005.7
20260506122347 51 355 0.0 0.9 0.03 0.09 0.07 94 1005.6
20260506121814 51 355 0.0 1.7 0.03 0.09 0.07 93 1005.7
20260506121323 51 355 0.9 2.6 0.03 0.09 0.07 93 1005.7
20260506120850 51 355 0.9 2.6 0.04 0.09 0.07 93 1005.7
20260506120339 51 355 1.7 2.6 0.04 0.09 0.07 93 1005.7
20260506115825 51 355 1.7 2.6 0.05 0.09 0.07 93 1005.6
20260506115353 51 355 0.9 1.7 0.04 0.08 0.06 93 1005.7
20260506114822 51 355 0.9 1.7 0.04 0.08 0.06 93 1005.9
20260506114332 51 355 0.0 1.7 0.04 0.08 0.06 93 1006.1
20260506113819 51 355 0.9 2.6 0.04 0.08 0.06 93 1006.2
20260506113349 51 355 0.0 2.6 0.04 0.07 0.05 93 1006.2
20260506112817 51 315 0.9 2.6 0.04 0.07 0.05 93 1006.3
20260506112322 51 315 0.9 2.6 0.03 0.06 0.04 93 1006.4
20260506111832 51 298 1.7 1.7 0.03 0.06 0.04 93 1006.3
20260506111400 51 298 0.0 2.6 0.03 0.06 0.04 92 1006.3
20260506110821 51 298 1.7 2.6 0.02 0.05 0.03 92 1006.3
20260506110329 51 298 0.9 1.7 0.02 0.05 0.03 92 1006.4
20260506105817 50 298 0.0 1.7 0.01 0.04 0.02 92 1006.2
20260506105328 51 298 0.9 1.7 0.02 0.04 0.02 92 1006.1
20260506104817 51 298 0.9 1.7 0.02 0.04 0.02 92 1006.1
20260506104321 51 298 0.0 1.7 0.02 0.04 0.02 92 1006.0
20260506103828 51 299 0.9 1.7 0.02 0.04 0.02 92 1005.9
20260506103317 51 268 0.9 1.7 0.01 0.03 0.01 92 1005.9
20260506102826 51 268 0.9 0.9 0.01 0.03 0.01 92 1005.9
20260506102315 51 268 0.0 2.6 0.01 0.03 0.01 91 1005.8
20260506101844 51 268 0.9 2.6 0.01 0.03 0.01 91 1005.9
20260506101331 51 26 0.0 1.7 0.01 0.03 0.01 91 1005.9
20260506100828 51 26 0.9 0.9 0.01 0.03 0.01 91 1006.0
20260506100316 50 26 0.0 1.7 0.01 0.03 0.01 91 1005.8
20260506095826 50 26 0.9 1.7 0.01 0.03 0.01 91 1005.9
20260506095314 51 26 0.0 1.7 0.00 0.02 0.00 90 1006.0
20260506094823 51 294 0.9 1.7 0.00 0.02 0.00 90 1005.9
20260506094332 51 294 0.9 1.7 0.00 0.02 0.00 90 1005.9
20260506093821 51 294 0.0 0.9 0.00 0.02 0.00 90 1005.8
20260506093347 51 294 0.0 0.9 0.00 0.02 0.00 90 1005.9
20260506092828 51 294 0.0 2.6 0.00 0.02 0.00 90 1005.9
20260506092318 51 294 0.0 2.6 0.00 0.02 0.00 90 1005.8
20260506091825 51 317 1.7 2.6 0.00 0.02 0.00 90 1005.7
20260506091313 51 325 0.0 1.7 0.00 0.02 0.00 90 1005.7
20260506090824 51 325 0.0 1.7 0.00 0.02 0.00 90 1005.7
20260506090314 51 333 0.9 1.7 0.00 0.02 0.00 90 1005.8
20260506085823 51 333 0.9 1.7 0.00 0.02 0.00 90 1005.8
20260506085328 51 320 1.7 1.7 0.00 0.02 0.00 90 1005.9
20260506084815 51 331 0.9 2.6 0.00 0.02 0.00 90 1005.8
20260506084324 51 321 0.9 2.6 0.00 0.02 0.00 90 1005.7
20260506083852 51 32 0.9 2.6 0.00 0.02 0.00 89 1005.8
20260506083340 51 38 1.7 2.6 0.00 0.02 0.00 89 1005.8
20260506082828 51 53 1.7 5.2 0.00 0.02 0.00 89 1005.9
20260506082339 51 31 3.5 6.1 0.00 0.02 0.00 89 1006.2
20260506081822 51 351 2.6 5.2 0.00 0.02 0.00 88 1006.2
20260506081323 51 18 2.6 4.3 0.00 0.02 0.00 89 1006.1
20260506080831 51 66 2.6 5.2 0.00 0.02 0.00 88 1006.0
20260506080321 51 63 3.5 5.2 0.00 0.02 0.00 88 1006.1
20260506073324 52 39 1.7 4.3 0.00 0.02 0.00 88 1006.4
20260506072853 52 42 2.6 7.8 0.00 0.02 0.00 88 1006.5
20260506072321 52 48 2.6 7.8 0.00 0.02 0.00 88 1006.5
20260506071829 52 51 3.5 6.1 0.00 0.02 0.00 88 1006.8
20260506071327 52 54 3.5 6.1 0.00 0.02 0.00 88 1006.8
20260506070816 52 60 3.5 4.3 0.00 0.02 0.00 88 1006.9
20260506070323 52 35 1.7 4.3 0.00 0.02 0.00 88 1006.8
20260506062332 53 5 0.9 0.9 0.00 0.02 0.00 87 1006.9
20260506061820 52 5 0.0 0.9 0.00 0.02 0.00 87 1007.0
20260506061330 52 5 0.0 1.7 0.00 0.02 0.00 87 1007.0
20260506060839 52 5 0.9 1.7 0.00 0.02 0.00 86 1007.1
20260506060320 53 5 0.0 0.9 0.00 0.02 0.00 86 1007.1
20260506051317 54 355 0.0 0.9 0.00 0.02 0.00 84 1007.8
20260506050845 55 355 0.0 0.9 0.00 0.02 0.00 83 1007.8
20260506050313 55 355 0.0 0.0 0.00 0.02 0.00 83 1007.8
20260506044820 55 355 0.0 0.9 0.00 0.02 0.00 83 1007.9
20260506044328 55 355 0.0 0.9 0.00 0.02 0.00 82 1007.9
20260506043815 55 355 0.0 1.7 0.00 0.02 0.02 82 1008.1
20260506043324 55 355 0.0 1.7 0.00 0.02 0.02 82 1008.1
20260506042813 55 355 0.9 2.6 0.00 0.02 0.02 82 1008.0
20260506042341 55 355 1.7 2.6 0.00 0.02 0.02 82 1007.9
20260506041849 55 355 0.9 1.7 0.00 0.02 0.02 82 1008.0
20260506041332 55 355 0.9 1.7 0.00 0.02 0.02 82 1008.0
20260506040813 55 355 0.0 2.6 0.00 0.02 0.02 82 1008.0
20260506040316 55 355 0.0 2.6 0.00 0.02 0.02 82 1008.2
20260506035821 55 355 1.7 3.5 0.00 0.02 0.02 82 1008.1
20260506035330 55 355 1.7 3.5 0.00 0.02 0.02 82 1008.3
20260506034839 55 351 2.6 3.5 0.00 0.02 0.02 82 1008.3
20260506034319 55 355 0.9 4.3 0.00 0.02 0.02 82 1008.3
20260506033828 55 327 2.6 4.3 0.00 0.02 0.02 82 1008.3
20260506033316 55 347 1.7 5.2 0.00 0.02 0.02 82 1008.2
20260506032821 55 351 3.5 5.2 0.00 0.02 0.02 82 1008.1
20260506032330 55 355 1.7 3.5 0.00 0.02 0.02 83 1008.3
20260506031858 55 35 1.7 5.2 0.00 0.02 0.02 83 1008.4
20260506031337 55 28 3.5 6.1 0.00 0.02 0.02 83 1008.2
20260506030824 55 360 2.6 6.1 0.00 0.02 0.02 84 1008.3
20260506030314 55 5 3.5 7.8 0.00 0.02 0.02 84 1008.3
20260506025821 55 36 4.3 7.8 0.00 0.02 0.02 84 1008.1
20260506025326 56 56 3.5 6.1 0.00 0.02 0.02 85 1008.3
20260506024814 56 355 4.3 6.1 0.00 0.02 0.02 85 1008.3
20260506024342 56 15 4.3 6.1 0.00 0.02 0.02 84 1008.1
20260506023851 56 30 3.5 8.7 0.00 0.02 0.02 84 1008.2
20260506023319 56 40 5.2 9.6 0.00 0.02 0.02 84 1008.2
20260506022826 56 41 4.3 9.6 0.00 0.02 0.02 84 1008.0
20260506022315 56 5 4.3 8.7 0.00 0.02 0.02 84 1007.9
20260506021820 57 28 3.5 8.7 0.00 0.02 0.02 83 1007.9
20260506021350 57 5 6.1 8.7 0.00 0.02 0.02 83 1008.0
20260506020819 57 22 5.2 11.3 0.00 0.02 0.02 84 1008.0
20260506020320 57 12 2.6 11.3 0.00 0.02 0.02 84 1007.9
20260506015831 57 360 3.5 9.6 0.00 0.02 0.02 84 1007.9
20260506015318 58 355 3.5 9.6 0.00 0.02 0.02 84 1007.8
20260506014827 58 5 4.3 11.3 0.00 0.02 0.02 85 1007.9
20260506014325 58 347 4.3 11.3 0.00 0.02 0.02 85 1007.7
20260506013815 59 34 5.2 13.9 0.00 0.02 0.02 85 1007.7
20260506013323 59 360 7.0 13.9 0.00 0.02 0.02 86 1007.4
20260506012815 60 25 9.6 13.9 0.00 0.02 0.02 87 1007.2
20260506012322 60 355 5.2 11.3 0.00 0.02 0.02 89 1007.2
20260506011830 60 338 3.5 4.3 0.00 0.02 0.02 89 1006.8
20260506011338 60 333 1.7 2.6 0.00 0.02 0.02 89 1006.7
20260506010821 60 203 1.7 2.6 0.00 0.02 0.02 89 1006.7
20260506010329 60 203 0.9 3.5 0.00 0.02 0.02 89 1006.7
20260506005818 60 203 1.7 5.2 0.00 0.02 0.02 89 1006.5
20260506005327 60 194 2.6 7.8 0.00 0.02 0.02 88 1006.4
20260506004817 60 185 5.2 7.8 0.00 0.02 0.02 88 1006.4
20260506004328 61 195 4.3 5.2 0.00 0.02 0.02 88 1006.1
20260506003837 61 215 3.5 4.3 0.00 0.02 0.02 87 1006.3
20260506003324 61 245 2.6 3.5 0.01 0.02 0.02 87 1005.9
20260506002828 61 250 1.7 3.5 0.01 0.02 0.02 86 1005.7
20260506002316 61 239 1.7 3.5 0.01 0.02 0.02 85 1005.7
20260506001825 61 196 1.7 3.5 0.01 0.02 0.02 84 1005.6
20260506001314 62 193 0.9 5.2 0.01 0.02 0.02 84 1005.6
20260506000824 62 186 2.6 5.2 0.01 0.02 0.02 83 1005.6
20260506000315 62 212 1.7 4.3 0.01 0.02 0.02 82 1005.7
20260505235823 62 205 1.7 4.3 0.01 0.02 0.02 82 1005.7
20260505235330 62 198 1.7 6.1 0.01 0.02 0.02 81 1005.7
20260505234815 63 179 5.2 9.6 0.01 0.02 0.02 80 1005.7
20260505234324 63 178 5.2 11.3 0.01 0.02 0.02 80 1005.7
20260505233814 63 199 10.4 11.3 0.01 0.02 0.02 79 1005.7
20260505233322 64 182 6.1 10.4 0.00 0.01 0.01 78 1005.6
20260505232830 64 198 7.0 11.3 0.00 0.01 0.01 77 1005.6
20260505232339 64 199 7.8 11.3 0.00 0.01 0.01 76 1005.5
20260505231818 64 192 7.0 9.6 0.00 0.01 0.01 76 1005.4
20260505231328 64 186 6.1 9.6 0.00 0.01 0.01 77 1005.2
20260505230813 64 184 4.3 8.7 0.00 0.01 0.01 77 1005.2
20260505230343 64 170 5.2 9.6 0.00 0.01 0.01 77 1005.2
20260505225829 64 198 6.1 9.6 0.00 0.01 0.01 77 1005.3
20260505225319 64 198 3.5 9.6 0.00 0.01 0.01 77 1005.1
20260505224827 64 182 7.0 9.6 0.00 0.01 0.01 78 1005.0
20260505224337 64 194 4.3 9.6 0.00 0.01 0.01 78 1005.0
20260505223823 64 194 5.2 9.6 0.00 0.01 0.01 78 1005.1
20260505223329 64 196 6.1 8.7 0.00 0.01 0.01 78 1005.1
20260505222818 64 204 3.5 7.8 0.00 0.01 0.01 78 1005.1
20260505222326 64 215 4.3 8.7 0.00 0.01 0.01 78 1004.9
20260505221814 64 215 5.2 8.7 0.00 0.01 0.01 78 1004.9
20260505221324 64 211 4.3 9.6 0.00 0.01 0.01 79 1004.9
20260505220853 63 191 4.3 9.6 0.00 0.01 0.01 79 1004.9
20260505220321 63 199 6.1 9.6 0.00 0.01 0.01 79 1005.0
20260505215844 63 216 5.2 9.6 0.00 0.01 0.01 79 1005.1
20260505215313 63 186 6.1 10.4 0.00 0.01 0.01 79 1005.1
20260505214839 63 184 4.3 10.4 0.00 0.01 0.01 79 1005.1
20260505214326 63 192 4.3 8.7 0.00 0.01 0.01 79 1005.2
20260505213816 63 144 4.3 11.3 0.00 0.01 0.01 79 1005.4
20260505213325 63 180 8.7 11.3 0.00 0.01 0.01 78 1005.4
20260505212849 64 211 5.2 9.6 0.00 0.01 0.01 78 1005.3
20260505212317 64 193 7.0 9.6 0.00 0.01 0.01 78 1005.3